Le nostre stazioni meteo in Italia

Pubblicità
Il mio iltempo24.it
Lentran, Gran Bretagna (99125): Temperatura & dewpoint: 22.05.2018 09:00:00 - 28.05.2018 09:00:00 (BST)Lentran, Gran Bretagna (99125): precipitazioni: 22.05.2018 09:00:00 - 28.05.2018 09:00:00 (BST)
Data & Tempo tt [°C] td [°C] rr [mm]
28.05.2018 09:00:00 - - -
28.05.2018 08:00:00 11,6 11,6 0,0
28.05.2018 07:00:00 9,0 9,0 0,0
28.05.2018 06:00:00 7,5 7,5 0,0
28.05.2018 05:00:00 7,5 7,5 0,0
28.05.2018 04:00:00 7,5 7,5 0,0
28.05.2018 03:00:00 7,2 7,0 0,0
28.05.2018 02:00:00 7,5 7,3 0,0
28.05.2018 01:00:00 8,3 8,2 0,0
28.05.2018 00:00:00 8,5 8,2 0,0
27.05.2018 23:00:00 9,1 8,5 0,0
27.05.2018 22:00:00 10,6 9,4 0,0
27.05.2018 21:00:00 13,2 10,0 0,0
27.05.2018 20:00:00 14,6 9,9 0,0
27.05.2018 19:00:00 14,7 10,4 0,0
27.05.2018 18:00:00 14,5 10,2 0,0
27.05.2018 17:00:00 15,1 9,8 0,0
27.05.2018 16:00:00 16,0 9,4 0,0
27.05.2018 15:00:00 16,1 10,1 0,0
27.05.2018 14:00:00 14,6 9,2 0,0
27.05.2018 13:00:00 13,1 8,7 0,0
27.05.2018 12:00:00 13,4 8,9 0,0
27.05.2018 11:00:00 11,2 8,0 0,0
27.05.2018 10:00:00 8,7 8,0 0,0
27.05.2018 09:00:00 7,6 7,6 0,0
27.05.2018 08:00:00 7,5 7,5 0,0
27.05.2018 07:00:00 7,4 7,4 0,0
27.05.2018 06:00:00 7,4 7,4 0,0
27.05.2018 05:00:00 7,5 7,5 0,0
27.05.2018 04:00:00 7,8 7,8 0,2
27.05.2018 03:00:00 7,9 7,9 0,0
27.05.2018 02:00:00 8,1 8,1 0,0
27.05.2018 01:00:00 8,2 8,2 0,0
27.05.2018 00:00:00 8,1 8,1 0,0
26.05.2018 23:00:00 8,3 8,3 0,0
26.05.2018 22:00:00 8,5 8,5 0,0
26.05.2018 21:00:00 8,6 8,6 0,0
26.05.2018 20:00:00 8,9 8,7 0,0
26.05.2018 19:00:00 9,3 8,8 0,0
26.05.2018 18:00:00 9,7 8,8 0,0
26.05.2018 17:00:00 10,4 8,8 0,0
26.05.2018 16:00:00 10,9 8,9 0,0
26.05.2018 15:00:00 12,2 9,5 0,0
26.05.2018 14:00:00 12,1 9,9 0,0
26.05.2018 13:00:00 11,7 9,0 0,0
26.05.2018 12:00:00 10,6 8,9 0,0
26.05.2018 11:00:00 9,5 8,4 0,0
26.05.2018 10:00:00 9,3 8,4 0,0
26.05.2018 09:00:00 8,6 8,2 0,0
26.05.2018 08:00:00 8,0 8,0 0,0
26.05.2018 07:00:00 7,9 7,9 0,0
26.05.2018 06:00:00 7,9 7,9 0,0
26.05.2018 05:00:00 7,9 7,8 0,0
26.05.2018 04:00:00 7,9 7,7 0,0
26.05.2018 03:00:00 8,1 7,7 0,0
26.05.2018 02:00:00 8,2 7,7 0,0
26.05.2018 01:00:00 8,4 8,1 0,0
26.05.2018 00:00:00 8,5 8,3 0,0
25.05.2018 23:00:00 8,7 8,5 0,0
25.05.2018 22:00:00 9,1 8,7 0,0
25.05.2018 21:00:00 9,9 8,6 0,0
25.05.2018 20:00:00 11,3 8,9 0,0
25.05.2018 19:00:00 13,7 9,5 0,0
25.05.2018 18:00:00 13,8 8,9 0,0
25.05.2018 17:00:00 15,6 9,4 0,0
25.05.2018 16:00:00 16,2 10,3 0,0
25.05.2018 15:00:00 16,4 9,6 0,0
25.05.2018 14:00:00 16,4 10,0 0,0
25.05.2018 13:00:00 15,7 9,8 0,0
25.05.2018 12:00:00 15,1 10,5 0,0
25.05.2018 11:00:00 15,1 9,6 0,0
25.05.2018 10:00:00 14,9 10,4 0,0
25.05.2018 09:00:00 14,6 10,5 0,0
25.05.2018 08:00:00 12,6 10,7 0,0
25.05.2018 07:00:00 11,3 10,5 0,0
25.05.2018 06:00:00 9,2 8,9 0,0
25.05.2018 05:00:00 9,2 8,7 0,0
25.05.2018 04:00:00 9,5 8,7 0,0
25.05.2018 03:00:00 10,3 9,4 0,0
25.05.2018 02:00:00 10,7 9,7 0,0
25.05.2018 01:00:00 11,3 10,3 0,0
25.05.2018 00:00:00 11,2 10,0 0,0
24.05.2018 23:00:00 11,4 10,1 0,0
24.05.2018 22:00:00 12,5 10,7 0,0
24.05.2018 21:00:00 14,0 10,9 0,0
24.05.2018 20:00:00 17,4 10,8 0,0
24.05.2018 19:00:00 19,5 10,6 0,0
24.05.2018 18:00:00 21,7 9,1 0,0
24.05.2018 17:00:00 20,9 7,8 0,0
24.05.2018 16:00:00 20,5 9,4 0,0
24.05.2018 15:00:00 20,4 11,3 0,0
24.05.2018 14:00:00 20,0 9,9 0,0
24.05.2018 13:00:00 17,7 11,0 0,0
24.05.2018 12:00:00 14,5 11,8 0,0
24.05.2018 11:00:00 11,1 10,7 0,0
24.05.2018 10:00:00 8,6 8,6 0,0
24.05.2018 09:00:00 7,6 7,6 0,0
24.05.2018 08:00:00 6,8 6,8 0,0
24.05.2018 07:00:00 6,2 6,2 0,0
24.05.2018 06:00:00 6,0 6,0 0,0
24.05.2018 05:00:00 4,6 4,6 0,0
24.05.2018 04:00:00 4,4 4,3 0,0
24.05.2018 03:00:00 4,9 4,9 0,0
24.05.2018 02:00:00 5,0 4,8 0,0
24.05.2018 01:00:00 5,7 5,5 0,0
24.05.2018 00:00:00 6,1 5,7 0,0
23.05.2018 23:00:00 7,3 6,7 0,0
23.05.2018 22:00:00 8,6 7,0 0,0
23.05.2018 21:00:00 11,7 7,9 0,0
23.05.2018 20:00:00 12,9 7,4 0,0
23.05.2018 19:00:00 13,0 7,5 0,0
23.05.2018 18:00:00 13,9 8,7 0,0
23.05.2018 17:00:00 14,2 8,5 0,0
23.05.2018 16:00:00 15,7 8,1 0,0
23.05.2018 15:00:00 16,3 6,5 0,0
23.05.2018 14:00:00 16,1 7,7 0,0
23.05.2018 13:00:00 14,4 8,6 0,0
23.05.2018 12:00:00 11,7 8,1 0,0
23.05.2018 11:00:00 11,7 7,8 0,0
23.05.2018 10:00:00 10,6 8,0 0,0
23.05.2018 09:00:00 9,1 7,3 0,0
23.05.2018 08:00:00 8,2 7,1 0,0
23.05.2018 07:00:00 7,4 6,8 0,0
23.05.2018 06:00:00 6,9 6,9 0,0
23.05.2018 05:00:00 6,1 6,1 0,0
23.05.2018 04:00:00 5,8 5,7 0,0
23.05.2018 03:00:00 6,5 6,3 0,0
23.05.2018 02:00:00 6,8 6,4 0,0
23.05.2018 01:00:00 6,9 6,5 0,0
23.05.2018 00:00:00 7,2 6,6 0,0
22.05.2018 23:00:00 7,5 6,5 0,0
22.05.2018 22:00:00 7,7 6,8 0,0
22.05.2018 21:00:00 7,9 6,9 0,0
22.05.2018 20:00:00 8,0 6,8 0,0
22.05.2018 19:00:00 8,3 6,9 0,0
22.05.2018 18:00:00 8,1 6,8 0,0
22.05.2018 17:00:00 7,9 6,3 0,0
22.05.2018 16:00:00 8,0 6,6 0,0
22.05.2018 15:00:00 8,0 6,7 0,0
22.05.2018 14:00:00 8,0 6,8 0,0
22.05.2018 13:00:00 7,9 7,0 0,0
22.05.2018 12:00:00 7,9 6,6 0,0
22.05.2018 11:00:00 7,5 7,0 0,0
22.05.2018 10:00:00 6,9 6,8 0,4
22.05.2018 09:00:00 6,5 6,4 0,2

tt = Temperatura
td = dewpoint
rr = precipitazioni

Stazioni seguenti

WeatherPro
AMSI
MeteoEarth